Regional Weather Roundup
Issued by NWS San Diego, CA

Home | Current Version | Previous Version | Text Only | Print | Product List | Glossary On
Versions: 1 2 3 4 5 6 7 8 9 10 11 12 13 14 15 16 17 18 19 20 21 22 23 24 25 26 27 28 29 30 31 32 33 34 35 36 37 38 39 40 41 42 43 44 45 46 47 48 49 50
000
ASUS46 KSGX 090811
RWRSGX

SAN DIEGO HOURLY WEATHER ROUNDUP
NATIONAL WEATHER SERVICE SAN DIEGO CA
1200 AM PST FRI DEC 09 2016

NOTE: "FAIR" INDICATES FEW OR NO CLOUDS BELOW 12,000 FEET WITH NO
SIGNIFICANT WEATHER AND/OR OBSTRUCTIONS TO VISIBILITY.

CAZ042-043-060-061-PZZ750-775-090900-

GREATER SAN DIEGO AREA

CITY           SKY/WX    TMP DP  RH WIND       PRES   REMARKS
SAN DIEGO AP   PTCLDY    55  50  83 CALM      30.28F
NATIONAL CITY    N/A     54  50  86 CALM      30.28S
CHULA VISTA      N/A     51  49  92 E1        30.19F
IMPERIAL BEACH CLEAR     52  49  89 E3        30.28S
BROWN FIELD    CLEAR     52  49  89 CALM      30.26F
MIRAMAR MCAS   CLEAR     52  48  86 CALM      30.26F
MONTGOMERY FLD CLEAR     54  49  83 CALM      30.27S

$$

NORTH SAN DIEGO COUNTY

CITY           SKY/WX    TMP DP  RH WIND       PRES   REMARKS
CAMP PENDLETON CLEAR     45  44  97 CALM      30.27S FOG
OCEANSIDE AP   CLEAR     47  45  93 CALM      30.26F
OCEANSIDE HBR    N/A     52  49  89 E1        30.29F
VISTA            N/A     49  44  83 CALM      30.25S
CARLSBAD       CLEAR     52  49  89 CALM      30.26S
DEL MAR          N/A     53  51  92 CALM      30.29F
LA JOLLA SCRIP   N/A     56  53  89 N1        30.26F
FALLBROOK        N/A     51  51  98 CALM      30.26F
ESCONDIDO        N/A     51  46  84 CALM      30.29S
SAN MARCOS       N/A    N/A N/A N/A CALM      30.28F
POWAY            N/A     47  44  88 CALM      30.30S

$$

EAST SAN DIEGO COUNTY

CITY           SKY/WX    TMP DP  RH WIND       PRES   REMARKS
RAMONA         FOG       40  39  97 CALM      30.26S VSB 1/4
SANTEE LAKES     N/A     49  46  91 CALM      30.27F
LA MESA          N/A     53  49  89 CALM      30.20F
JAMUL            N/A     47  45  91 CALM      30.28F
DESCANSO N       N/A     40  37  89 NE5       30.25F
CAMPO            N/A     39  36  89 NE3       30.23F

$$

ORANGE COUNTY AND THE LOS ANGELES BASIN

CITY           SKY/WX    TMP DP  RH WIND       PRES   REMARKS
JOHN WAYNE AP  PTCLDY    55  51  86 CALM      30.26S
LAGUNA BEACH     N/A     50  47  90 CALM      30.21F
LAKE FOREST FR   N/A     51  40  66 CALM      30.16F
HUNTINGTON BCH   N/A     52  51  95 CALM      30.27F
LOS ALAMITOS   FAIR      53  51  90 CALM      30.25F
FULLERTON      MOCLDY    54  48  80 CALM      30.25F
LONG BEACH     CLEAR     54  52  93 CALM      30.26S
L.A. AP        PTCLDY    56  51  84 E5        30.26S
L.A. DOWNTOWN  CLEAR     54  50  86 CALM      30.26R

$$

THE INLAND EMPIRE

CITY           SKY/WX    TMP DP  RH WIND       PRES   REMARKS
CORONA         PTCLDY    45  43  93 CALM      30.27
CHINO          PTCLDY    48  44  86 CALM      30.28S
ONTARIO        PTCLDY    51  43  74 CALM      30.26S
SAN BERNARDINO FAIR      48  40  73 CALM      30.27S
RIVERSIDE AP   PTCLDY    50  45  83 CALM      30.26F
MORENO VALLEY    N/A     49  46  89 CALM      28.37S
MARCH ARB      PTCLDY    44  44 100 NW3       30.25F
HORSETHIEF CYN   N/A     49  39  67 CALM      30.31S
PERRIS           N/A     51  46  84 CALM      30.29S
HEMET EAST       N/A     49  37  64 CALM      30.31F
FRENCH VALLEY  NOT AVBL
TEMECULA         N/A     49  47  93 CALM      30.32S

$$

SAN BERNARDINO AND RIVERSIDE COUNTY MOUNTAINS

CITY           SKY/WX    TMP DP  RH WIND       PRES   REMARKS
BIG BEAR AP    PTCLDY    32  30  93 CALM      30.34S
PINE COVE        N/A     46  40  78 N5        30.24F

$$

SOUTHERN DESERT INCLUDING THE COACHELLA VALLEY

CITY           SKY/WX    TMP DP  RH WIND       PRES   REMARKS
PALM SPRINGS   PTCLDY    51  29  42 NW6       30.24F
PALM DESERT      N/A     48  34  58 CALM      30.07S
THERMAL        PTCLDY    41  31  67 N3        30.21F
BLYTHE         CLEAR     45  13  27 N3        30.22F
IMPERIAL AP    PTCLDY    48  31  51 W3        30.21S
EL CENTRO NAS  PTCLDY    44  21  40 W7        30.23S
YUMA AZ        CLEAR     51  20  29 N5        30.21
MEXICALI       CLEAR     52  25  35 CALM      30.22S

$$

UPPER DESERT

CITY           SKY/WX    TMP DP  RH WIND       PRES   REMARKS
VICTORVILLE AP   N/A     46  36  66 CALM      30.25R
HESPERIA         N/A     49  39  68 W1        30.41F
PALMDALE       CLEAR     50  40  68 S9        30.24S
LANCASTER      CLEAR     52  41  66 SW8       30.23F
EDWARDS AFB    PTCLDY    51  44  77 SW10      30.20F
DAGGETT        MOCLDY    42  12  29 W3        30.24F
29 PALMS N     MOCLDY    44  10  25 NW3       30.30F
NEEDLES        CLOUDY    54  13  19 NW7       30.26F

$$

REGIONAL REPORTS

CITY           SKY/WX    TMP DP  RH WIND       PRES   REMARKS
SANTA BARBARA  CLOUDY    58  58 100 W9        30.25S
SANDBERG       MOCLDY    51  45  79 W8        30.29S
LAS VEGAS NV   MOCLDY    47  10  22 CALM      30.26F
PHOENIX AZ     CLEAR     52  42  69 E3        30.20S
TIJUANA        PTCLDY    52  46  82 CALM      30.29S
ENSENADA NW      N/A     56  32  40 CALM      30.23S

$$

OFFSHORE ISLANDS

CITY           SKY/WX    TMP DP  RH WIND       PRES   REMARKS
CATALINA ARPT  FOG       54  54 100 W13       30.27S VSB 1/4
SAN NICOLAS IS CLOUDY    56 N/A N/A W15       30.27S

$$

MARINE AND OFFSHORE BUOY REPORTS

STATION/POSITION SKY/WX   TEMP    WIND        PRES    SWELL
                          AIR SEA DIR/SP/G            HT/PER/DIR
                          (F)     (DEG/KT/KT) (MB)    (FT/S/D)
TANNER BANKS               61 62  280/  8/ 10 1025.1F   3/250/15
S CLEMENTE BASIN           60 62  330/ 12/ 14 1024.8F   2/220/15
SAN NICOLAS IS.               58                N/A     2/240/15
SO. S. ROSA ISLA           58 58  250/  4/  4 1024.8F   3/260/15
W. S. BARBARA CH           57 56  210/  2/  2 1024.9F   3/290/ 8
M. S. BARBARA CH                  270/  8/ 10 1025.0
S. MONICA BASIN            60 60  290/  8/ 10 1024.5F   2/220/15
S PEDRO CHANNEL               61                N/A     2/240/14
CMP PENDLETON NS              61                N/A     2/210/15
OCEANSIDE OFFSHR              62                N/A     2/200/15
TORREY PINES OTR              62                N/A     2/240/15
POINT LOMA SOUTH              62                N/A     2/230/15

$$




USA.gov is the U.S. government's official web portal to all federal, state and local government web resources and services.